TimeEST,TemperatureF,Dew PointF,Humidity,Sea Level PressureIn,VisibilityMPH,Wind Direction,Wind SpeedMPH,Gust SpeedMPH,PrecipitationIn,Events,Conditions,WindDirDegrees,DateUTC
12:15 AM,32.0,32.0,100,30.12,7.0,Calm,Calm,-,N/A,,Clear,0,2013-03-05 05:15:00
12:35 AM,32.0,32.0,100,30.11,7.0,Calm,Calm,-,N/A,,Clear,0,2013-03-05 05:35:00
12:55 AM,33.8,32.0,93,30.11,7.0,Calm,Calm,-,N/A,,Clear,0,2013-03-05 05:55:00
1:35 AM,33.8,33.8,100,30.12,7.0,Calm,Calm,-,N/A,,Clear,0,2013-03-05 06:35:00
1:55 AM,33.8,33.8,100,30.11,7.0,Calm,Calm,-,N/A,,Clear,0,2013-03-05 06:55:00
2:15 AM,33.8,33.8,100,30.11,7.0,Calm,Calm,-,N/A,,Clear,0,2013-03-05 07:15:00
2:35 AM,33.8,33.8,100,30.11,7.0,Calm,Calm,-,N/A,,Clear,0,2013-03-05 07:35:00
3:15 AM,35.6,35.6,100,30.11,7.0,Calm,Calm,-,N/A,,Clear,0,2013-03-05 08:15:00
3:35 AM,33.8,33.8,100,30.12,7.0,Calm,Calm,-,N/A,,Clear,0,2013-03-05 08:35:00
3:55 AM,33.8,33.8,100,30.11,7.0,Calm,Calm,-,N/A,,Scattered Clouds,0,2013-03-05 08:55:00
4:15 AM,33.8,33.8,100,30.12,7.0,Calm,Calm,-,N/A,,Clear,0,2013-03-05 09:15:00
4:35 AM,33.8,33.8,100,30.11,7.0,Calm,Calm,-,N/A,,Clear,0,2013-03-05 09:35:00
4:55 AM,33.8,33.8,100,30.12,7.0,Calm,Calm,-,N/A,,Clear,0,2013-03-05 09:55:00
5:15 AM,33.8,33.8,100,30.12,7.0,Calm,Calm,-,N/A,,Scattered Clouds,0,2013-03-05 10:15:00
5:35 AM,33.8,33.8,100,30.13,7.0,Calm,Calm,-,N/A,,Scattered Clouds,0,2013-03-05 10:35:00
5:55 AM,33.8,33.8,100,30.13,7.0,Calm,Calm,-,N/A,,Clear,0,2013-03-05 10:55:00
6:15 AM,33.8,33.8,100,30.12,7.0,Calm,Calm,-,N/A,,Clear,0,2013-03-05 11:15:00
6:35 AM,33.8,33.8,100,30.12,5.0,Calm,Calm,-,N/A,,Clear,0,2013-03-05 11:35:00
6:55 AM,33.8,33.8,100,30.12,5.0,Calm,Calm,-,N/A,,Clear,0,2013-03-05 11:55:00
7:35 AM,37.4,37.4,100,30.12,5.0,Calm,Calm,-,N/A,,Clear,0,2013-03-05 12:35:00
8:15 AM,42.8,42.8,100,30.12,5.0,Calm,Calm,-,N/A,,Clear,0,2013-03-05 13:15:00
8:35 AM,46.4,42.8,87,30.12,7.0,SSW,4.6,-,N/A,,Scattered Clouds,200,2013-03-05 13:35:00
8:55 AM,51.8,41.0,67,30.11,7.0,SSW,5.8,-,N/A,,Clear,200,2013-03-05 13:55:00
9:15 AM,53.6,39.2,58,30.10,7.0,South,9.2,-,N/A,,Clear,180,2013-03-05 14:15:00
9:35 AM,57.2,37.4,48,30.08,7.0,South,9.2,-,N/A,,Clear,190,2013-03-05 14:35:00
9:55 AM,59.0,37.4,45,30.07,7.0,South,9.2,-,N/A,,Clear,190,2013-03-05 14:55:00
10:15 AM,60.8,35.6,39,30.06,7.0,South,10.4,-,N/A,,Clear,190,2013-03-05 15:15:00
10:35 AM,62.6,35.6,37,30.05,7.0,South,8.1,17.3,N/A,,Clear,180,2013-03-05 15:35:00
10:55 AM,62.6,35.6,37,30.05,7.0,SW,11.5,19.6,N/A,,Clear,220,2013-03-05 15:55:00
11:15 AM,64.4,35.6,34,30.04,7.0,SW,11.5,20.7,N/A,,Scattered Clouds,220,2013-03-05 16:15:00
11:35 AM,62.6,35.6,37,30.03,5.0,SSW,10.4,20.7,N/A,,Haze,210,2013-03-05 16:35:00
11:55 AM,64.4,37.4,37,30.03,7.0,SW,11.5,17.3,N/A,,Mostly Cloudy,230,2013-03-05 16:55:00
12:15 PM,62.6,37.4,39,30.01,5.0,SSW,6.9,17.3,N/A,,Haze,200,2013-03-05 17:15:00
12:35 PM,62.6,37.4,39,30.00,7.0,SW,4.6,-,N/A,,Overcast,230,2013-03-05 17:35:00
12:55 PM,62.6,37.4,39,29.99,5.0,SW,5.8,-,N/A,,Haze,230,2013-03-05 17:55:00
1:15 PM,62.6,37.4,39,29.98,7.0,SW,6.9,-,N/A,,Overcast,220,2013-03-05 18:15:00
1:35 PM,62.6,37.4,39,29.96,7.0,SSW,4.6,-,N/A,,Overcast,210,2013-03-05 18:35:00
1:55 PM,62.6,39.2,42,29.95,7.0,SSW,5.8,-,N/A,,Overcast,210,2013-03-05 18:55:00
2:15 PM,62.6,39.2,42,29.94,7.0,SSW,5.8,-,N/A,,Overcast,210,2013-03-05 19:15:00
2:35 PM,64.4,39.2,40,29.92,5.0,SSE,4.6,-,N/A,,Haze,160,2013-03-05 19:35:00
2:55 PM,68.0,41.0,37,29.92,5.0,SSW,11.5,16.1,N/A,,Haze,200,2013-03-05 19:55:00
3:15 PM,64.4,41.0,42,29.90,7.0,South,11.5,-,N/A,,Mostly Cloudy,190,2013-03-05 20:15:00
3:35 PM,68.0,41.0,37,29.89,7.0,South,11.5,16.1,N/A,,Overcast,190,2013-03-05 20:35:00
3:55 PM,68.0,42.8,40,29.89,7.0,South,11.5,-,N/A,,Mostly Cloudy,190,2013-03-05 20:55:00
4:15 PM,66.2,42.8,43,29.88,5.0,South,12.7,-,N/A,,Haze,190,2013-03-05 21:15:00
4:35 PM,64.4,44.6,49,29.87,5.0,SSW,8.1,17.3,N/A,,Haze,200,2013-03-05 21:35:00
4:55 PM,64.4,44.6,49,29.87,7.0,SSW,9.2,-,N/A,,Mostly Cloudy,200,2013-03-05 21:55:00
5:15 PM,62.6,46.4,55,29.86,7.0,South,9.2,-,N/A,,Overcast,180,2013-03-05 22:15:00
5:35 PM,60.8,44.6,55,29.86,7.0,South,6.9,-,N/A,,Overcast,180,2013-03-05 22:35:00
5:55 PM,60.8,44.6,55,29.86,5.0,South,9.2,-,N/A,,Haze,190,2013-03-05 22:55:00
6:15 PM,59.0,44.6,59,29.85,7.0,South,9.2,-,N/A,,Overcast,190,2013-03-05 23:15:00
6:35 PM,59.0,44.6,59,29.84,7.0,South,6.9,-,N/A,,Mostly Cloudy,180,2013-03-05 23:35:00
6:55 PM,59.0,44.6,59,29.83,7.0,South,8.1,-,N/A,,Mostly Cloudy,180,2013-03-05 23:55:00
7:15 PM,57.2,44.6,63,29.83,10.0,South,8.1,-,N/A,,Overcast,180,2013-03-06 00:15:00
7:35 PM,57.2,44.6,63,29.80,7.0,South,10.4,-,N/A,,Overcast,180,2013-03-06 00:35:00
7:55 PM,57.2,44.6,63,29.78,7.0,South,9.2,-,N/A,,Overcast,180,2013-03-06 00:55:00
8:15 PM,57.2,44.6,63,29.75,7.0,South,9.2,17.3,N/A,,Scattered Clouds,180,2013-03-06 01:15:00
8:35 PM,59.0,44.6,59,29.74,7.0,South,10.4,17.3,N/A,,Clear,190,2013-03-06 01:35:00
8:55 PM,59.0,46.4,63,29.74,7.0,South,15.0,21.9,N/A,,Scattered Clouds,190,2013-03-06 01:55:00
9:15 PM,60.8,48.2,63,29.70,7.0,South,16.1,19.6,N/A,,Scattered Clouds,180,2013-03-06 02:15:00
9:35 PM,60.8,50.0,68,29.72,7.0,South,15.0,25.3,N/A,,Scattered Clouds,190,2013-03-06 02:35:00
9:55 PM,60.8,50.0,68,29.71,7.0,SSW,13.8,24.2,N/A,,Overcast,200,2013-03-06 02:55:00
10:15 PM,60.8,51.8,72,29.71,10.0,SSW,15.0,23.0,N/A,Rain,Light Rain,200,2013-03-06 03:15:00
10:35 PM,57.2,53.6,88,29.70,7.0,SSW,10.4,17.3,0.03,Rain,Rain,200,2013-03-06 03:35:00
10:55 PM,55.4,55.4,100,29.67,7.0,South,9.2,-,0.06,,Overcast,190,2013-03-06 03:55:00
11:15 PM,55.4,55.4,100,29.67,7.0,SSW,10.4,-,N/A,,Mostly Cloudy,200,2013-03-06 04:15:00
11:35 PM,57.2,57.2,100,29.67,7.0,West,5.8,18.4,N/A,,Overcast,270,2013-03-06 04:35:00
11:55 PM,59.0,55.4,88,29.65,7.0,SSW,9.2,16.1,N/A,,Overcast,210,2013-03-06 04:55:00